EW5037 Houma LA US current weather conditions

sailwx.info

Wind from 338 at 7 knots gusting 14

Air temperature 12.8° C
Dewpoint 9.8° C

Last reported at 2020-Jan-24 08:58 UTC.
Time now 2020-Jan-24 09:17 UTC

Location: N 29°32' W 090°40'.
View on Google Maps.

See reports from other nearby stations

  
Tides and Currents Weather Stations Pressure Air Temp Water Temp Dewpoint Dewpoint Depression Visibility Wind Speed Wind Dir Waves Ship Positions
date/time (UTC)wind fromknots sea level pressurealtimeterstation pressurevisibilityair tempwater tempwave heightnotes
2020-Jan-24 08:58 338 7 gusting 14 12.8
2020-Jan-24 08:48 338 9 gusting 13 12.8
2020-Jan-24 08:38 12.8
2020-Jan-24 08:28 315 10 gusting 13 12.8
2020-Jan-24 08:18 12.8
2020-Jan-24 08:07 12.8
2020-Jan-24 07:57 12.8
2020-Jan-24 07:47 13.3
2020-Jan-24 07:37 13.3
2020-Jan-24 07:27 315 5 gusting 8 13.3
2020-Jan-24 07:17 13.3
2020-Jan-24 07:07 338 5 gusting 9 13.9
2020-Jan-24 06:57 13.9
2020-Jan-24 06:47 315 8 gusting 9 13.9
2020-Jan-24 06:37 338 6 gusting 9 14.4
2020-Jan-24 06:27 315 3 gusting 8 14.4
2020-Jan-24 06:17 15.0
2020-Jan-24 06:07 315 3 gusting 8 15.0
2020-Jan-24 05:57 315 3 gusting 9 15.0
2020-Jan-24 05:47 315 6 gusting 12 15.0
2020-Jan-24 05:37 270 6 gusting 12 15.0
2020-Jan-24 05:27 270 4 gusting 9 15.0
2020-Jan-24 05:17 270 3 gusting 6 15.0
2020-Jan-24 05:07 270 2 gusting 5 15.0
2020-Jan-24 04:57 270 1 gusting 3 15.0
2020-Jan-24 04:47 270 2 gusting 4 15.0
2020-Jan-24 04:37 270 1 gusting 3 15.0
2020-Jan-24 04:27 270 1 gusting 3 15.0
2020-Jan-24 04:16 270 1 gusting 5 15.0
2020-Jan-24 04:06 270 3 gusting 5 15.0
2020-Jan-24 03:56 180 1 gusting 2 14.4
2020-Jan-24 03:46 180 0 gusting 1 13.9
2020-Jan-24 03:36 180 13.3
2020-Jan-24 03:26 180 0 gusting 1 13.3
2020-Jan-24 03:16 180 13.3
2020-Jan-24 03:06 180 13.9
2020-Jan-24 02:56 180 0 gusting 1 13.9
2020-Jan-24 02:46 180 0 gusting 2 13.9
2020-Jan-24 02:36 180 1 gusting 2 13.9
2020-Jan-24 02:26 180 0 gusting 1 14.4
2020-Jan-24 02:16 180 0 gusting 2 14.4
2020-Jan-24 02:06 180 1 gusting 2 14.4
2020-Jan-24 01:56 180 0 gusting 1 14.4
2020-Jan-24 01:46 180 15.0
2020-Jan-24 01:36 180 0 gusting 1 15.0
2020-Jan-24 01:26 180 15.6
2020-Jan-24 01:16 180 15.6
2020-Jan-24 01:06 180 1 gusting 2 15.6
2020-Jan-24 00:56 180 1 gusting 2 16.1
2020-Jan-24 00:46 180 1 gusting 1 16.1
2020-Jan-24 00:36 180 16.1
2020-Jan-24 00:25 180 16.1
2020-Jan-24 00:15 180 16.1
2020-Jan-24 00:05 180 16.7
2020-Jan-23 23:55 180 1 gusting 3 16.7
2020-Jan-23 23:45 180 1 gusting 3 17.2
2020-Jan-23 23:35 180 17.2
2020-Jan-23 23:25 180 1 gusting 2 17.2
2020-Jan-23 23:15 180 1 gusting 3 17.8
2020-Jan-23 23:05 180 1 gusting 5 17.8
2020-Jan-23 22:55 180 4 gusting 7 17.8
2020-Jan-23 22:45 180 3 gusting 8 18.3
2020-Jan-23 22:35 180 4 gusting 8 18.3
2020-Jan-23 22:25 180 6 gusting 8 18.3
2020-Jan-23 22:15 180 4 gusting 9 18.3
2020-Jan-23 22:05 225 6 gusting 13 18.3
2020-Jan-23 21:55 180 10 gusting 14 18.3
2020-Jan-23 21:45 180 6 gusting 13 18.9
2020-Jan-23 21:35 225 8 gusting 13 18.9
2020-Jan-23 21:25 135 7 gusting 13 18.9
2020-Jan-23 21:15 180 8 gusting 13 18.3
2020-Jan-23 21:05 180 9 gusting 12 18.9
2020-Jan-23 20:55 180 6 gusting 13 18.9
2020-Jan-23 20:45 180 9 18.3
2020-Jan-23 20:38 225 6 18.3
2020-Jan-23 20:34 180 6 gusting 11 17.8
2020-Jan-23 20:24 180 6 gusting 9 17.8
2020-Jan-23 20:14 180 6 gusting 13 17.8
2020-Jan-23 20:04 225 9 gusting 13 18.3
2020-Jan-23 19:54 180 9 gusting 12 18.3
2020-Jan-23 19:43 135 7 gusting 10 17.8
2020-Jan-23 19:33 180 8 gusting 12 17.2
2020-Jan-23 19:23 135 9 gusting 13 16.7
2020-Jan-23 19:14 135 9 gusting 13 17.2
2020-Jan-23 19:03 135 6 gusting 13 16.7
2020-Jan-23 18:53 135 7 gusting 13 16.1
2020-Jan-23 18:43 135 11 gusting 14 15.6
2020-Jan-23 18:33 090 7 gusting 13 16.1
2020-Jan-23 18:23 135 7 gusting 10 15.6
2020-Jan-23 18:13 090 5 gusting 9 15.6
2020-Jan-23 18:03 135 6 gusting 11 15.6
2020-Jan-23 17:53 135 8 gusting 11 15.6
2020-Jan-23 17:43 135 6 gusting 10 15.6
2020-Jan-23 17:33 135 6 gusting 13 15.0
2020-Jan-23 17:23 135 11 gusting 13 15.6
2020-Jan-23 17:13 135 11 gusting 13 15.6
2020-Jan-23 17:03 090 7 gusting 13 15.0
2020-Jan-23 16:53 135 8 gusting 13 15.0
2020-Jan-23 16:43 090 12 gusting 13 15.0
2020-Jan-23 16:33 135 9 gusting 13 14.4
2020-Jan-23 16:23 135 9 gusting 14 14.4
2020-Jan-23 16:13 135 12 gusting 14 14.4
2020-Jan-23 16:02 135 6 gusting 13 14.4
2020-Jan-23 15:52 090 11 gusting 13 14.4
2020-Jan-23 15:42 090 6 gusting 13 14.4
2020-Jan-23 15:32 135 10 gusting 13 14.4
2020-Jan-23 15:22 090 6 gusting 14 14.4
2020-Jan-23 15:12 135 6 gusting 10 13.9
2020-Jan-23 15:02 090 8 gusting 10 13.9
2020-Jan-23 14:52 090 6 gusting 8 13.3
2020-Jan-23 14:42 090 6 gusting 10 13.3
2020-Jan-23 14:32 045 6 gusting 10 13.3
2020-Jan-23 14:22 090 5 gusting 6 13.3
2020-Jan-23 14:12 090 4 gusting 7 12.8
2020-Jan-23 14:02 090 5 gusting 7 12.8
2020-Jan-23 13:52 135 4 gusting 9 12.8
2020-Jan-23 13:42 090 6 gusting 7 12.8
2020-Jan-23 13:32 180 3 gusting 7 12.8
2020-Jan-23 13:22 135 5 gusting 8 12.2
2020-Jan-23 13:12 090 3 gusting 6 11.7
2020-Jan-23 13:02 090 2 gusting 6 11.7
2020-Jan-23 12:52 045 3 gusting 6 11.7
2020-Jan-23 12:42 090 4 gusting 6 11.7
2020-Jan-23 12:32 045 3 gusting 8 11.7
2020-Jan-23 12:22 090 3 gusting 6 12.2
2020-Jan-23 12:12 090 4 gusting 6 12.2
2020-Jan-23 12:01 090 3 gusting 6 12.2
2020-Jan-23 11:52 090 3 gusting 5 12.2
2020-Jan-23 11:41 090 3 gusting 7 12.2
2020-Jan-23 11:31 090 6 gusting 10 12.8
2020-Jan-23 11:21 045 6 gusting 9 12.8
2020-Jan-23 11:11 113 7 gusting 12 12.8
2020-Jan-23 11:01 090 6 gusting 8 12.2
2020-Jan-23 10:51 090 6 gusting 8 12.2
2020-Jan-23 10:41 045 3 gusting 6 12.2
2020-Jan-23 10:31 090 3 gusting 8 12.2
2020-Jan-23 10:21 135 3 gusting 8 12.8
2020-Jan-23 10:11 090 6 gusting 8 12.8
2020-Jan-23 10:01 090 4 gusting 7 12.8
2020-Jan-23 09:51 090 4 gusting 8 12.2
2020-Jan-23 09:41 090 6 gusting 9 12.2
2020-Jan-23 09:31 135 2 gusting 6 12.2
2020-Jan-23 09:21 135 4 gusting 10 12.2
2020-Jan-23 09:11 135 8 gusting 10 12.2
2020-Jan-23 09:01 135 6 gusting 13 12.8
2020-Jan-23 08:51 135 8 gusting 9 12.8
2020-Jan-23 08:41 113 6 gusting 9 12.2
2020-Jan-23 08:31 135 8 gusting 9 12.2
2020-Jan-23 08:21 090 6 gusting 13 12.2
2020-Jan-23 08:10 090 6 gusting 10 12.2
2020-Jan-23 08:00 090 3 gusting 9 12.2
2020-Jan-23 07:50 135 7 gusting 10 12.2
2020-Jan-23 07:40 090 6 gusting 8 12.2
2020-Jan-23 07:30 090 5 gusting 12 12.2
2020-Jan-23 07:20 135 5 gusting 12 12.2
2020-Jan-23 07:10 135 6 gusting 10 12.2
2020-Jan-23 07:00 090 6 gusting 13 12.2
2020-Jan-23 06:50 135 10 gusting 13 11.7
2020-Jan-23 06:40 135 7 gusting 18 11.1
2020-Jan-23 06:30 135 13 gusting 16 11.1
2020-Jan-23 06:20 135 7 gusting 15 11.1
2020-Jan-23 06:10 135 9 gusting 15 11.1
2020-Jan-23 06:00 090 6 gusting 11 11.1
2020-Jan-23 05:50 113 7 gusting 13 11.1
2020-Jan-23 05:40 135 5 gusting 9 11.1
2020-Jan-23 05:30 090 6 gusting 13 11.1
2020-Jan-23 05:20 090 7 gusting 13 11.1
2020-Jan-23 05:10 135 6 gusting 9 11.1
2020-Jan-23 05:00 135 3 gusting 6 11.1
2020-Jan-23 04:50 135 4 gusting 6 10.6
2020-Jan-23 04:40 135 3 gusting 6 10.6
2020-Jan-23 04:30 135 1 gusting 3 10.6
2020-Jan-23 04:20 045 0 gusting 3 10.6
2020-Jan-23 04:09 090 1 gusting 3 10.6
2020-Jan-23 03:59 045 1 gusting 3 10.6
2020-Jan-23 03:49 045 1 gusting 3 11.1
2020-Jan-23 03:40 045 1 gusting 6 11.1
2020-Jan-23 03:29 045 2 gusting 6 11.1
2020-Jan-23 03:19 090 2 gusting 4 11.1
2020-Jan-23 03:09 113 2 gusting 6 11.1
2020-Jan-23 02:59 090 5 gusting 6 11.1
2020-Jan-23 02:49 090 3 gusting 6 10.6
2020-Jan-23 02:39 090 4 gusting 7 10.6
2020-Jan-23 02:29 090 6 gusting 9 10.6
2020-Jan-23 02:19 045 6 gusting 11 10.6
2020-Jan-23 02:09 090 8 gusting 11 10.6
2020-Jan-23 01:59 045 6 gusting 10 10.6
2020-Jan-23 01:49 090 6 gusting 13 10.6
2020-Jan-23 01:39 090 9 gusting 14 10.6
2020-Jan-23 01:29 090 8 gusting 16 10.6
2020-Jan-23 01:19 090 9 gusting 14 10.6
2020-Jan-23 01:09 135 8 gusting 15 10.6
2020-Jan-23 00:59 090 11 gusting 14 10.0
2020-Jan-23 00:49 090 9 gusting 18 10.0
2020-Jan-23 00:39 090 9 gusting 13 10.0
2020-Jan-23 00:28 090 7 gusting 15 10.0
2020-Jan-23 00:19 090 7 gusting 13 10.0
2020-Jan-23 00:08 090 9 gusting 13 10.6
2020-Jan-22 23:58 135 10 gusting 13 10.6
2020-Jan-22 23:48 135 3 gusting 9 10.6
2020-Jan-22 23:38 135 4 gusting 9 10.6
2020-Jan-22 23:28 135 6 gusting 10 10.6
2020-Jan-22 23:18 090 3 gusting 8 10.6
2020-Jan-22 23:08 135 6 gusting 13 10.6
2020-Jan-22 22:58 090 9 gusting 13 10.6
2020-Jan-22 22:48 090 8 gusting 11 11.1
2020-Jan-22 22:38 135 7 gusting 11 11.1
2020-Jan-22 22:28 135 6 gusting 13 11.1
2020-Jan-22 22:18 090 9 gusting 13 11.1
2020-Jan-22 22:08 090 7 gusting 13 11.1
2020-Jan-22 21:58 090 12 gusting 13 11.1
2020-Jan-22 21:48 090 5 gusting 9 11.7
2020-Jan-22 21:38 135 6 gusting 12 11.7
2020-Jan-22 21:28 045 6 gusting 13 11.7
2020-Jan-22 21:18 045 9 gusting 13 12.2
2020-Jan-22 21:08 045 6 gusting 12 12.2
2020-Jan-22 20:58 045 6 gusting 11 12.2
2020-Jan-22 20:48 045 6 gusting 9 12.2
2020-Jan-22 20:37 090 5 gusting 10 12.2
2020-Jan-22 20:28 090 3 gusting 13 12.2
2020-Jan-22 20:17 090 9 gusting 11 12.2
2020-Jan-22 20:08 068 6 gusting 9 12.2
2020-Jan-22 19:57 113 7 gusting 9 12.2
2020-Jan-22 19:47 135 6 gusting 9 12.2
2020-Jan-22 19:37 090 6 gusting 10 12.2
2020-Jan-22 19:27 135 4 gusting 9 12.2
2020-Jan-22 19:17 135 3 gusting 9 12.2
2020-Jan-22 19:07 045 6 gusting 9 12.2
2020-Jan-22 18:57 090 6 gusting 11 12.8
2020-Jan-22 18:47 090 5 gusting 11 12.8
2020-Jan-22 18:37 090 5 gusting 13 12.2
2020-Jan-22 18:27 180 6 gusting 11 12.2
2020-Jan-22 18:17 180 5 gusting 12 12.2
2020-Jan-22 18:07 045 6 gusting 11 12.2
2020-Jan-22 17:57 090 6 gusting 13 11.7
2020-Jan-22 17:47 045 8 gusting 12 11.7
2020-Jan-22 17:37 045 8 gusting 14 11.1
2020-Jan-22 17:27 023 6 gusting 11 11.1
2020-Jan-22 17:17 135 5 gusting 12 11.1
2020-Jan-22 17:07 090 6 gusting 13 10.6
2020-Jan-22 16:57 090 8 gusting 13 10.6
2020-Jan-22 16:46 090 7 gusting 14 10.6
2020-Jan-22 16:37 045 6 gusting 10 10.6
2020-Jan-22 16:26 045 8 gusting 11 10.0
2020-Jan-22 16:17 135 8 gusting 12 9.4
2020-Jan-22 16:06 090 8 gusting 10 8.9
2020-Jan-22 15:56 068 9 gusting 11 8.3
2020-Jan-22 15:46 045 7 gusting 9 8.3
2020-Jan-22 15:36 068 6 gusting 9 7.8
2020-Jan-22 15:26 090 6 gusting 12 7.2
2020-Jan-22 15:16 045 6 gusting 11 7.2
2020-Jan-22 15:06 090 8 gusting 11 7.2
2020-Jan-22 14:56 045 6 gusting 9 6.7
2020-Jan-22 14:46 090 6 gusting 7 6.1
2020-Jan-22 14:36 090 3 gusting 6 5.6
2020-Jan-22 14:26 090 3 gusting 6 5.6
2020-Jan-22 14:16 090 5 gusting 6 5.0
2020-Jan-22 14:06 090 3 gusting 6 4.4
2020-Jan-22 13:56 090 4 gusting 6 4.4
2020-Jan-22 13:46 090 1 gusting 7 3.9
2020-Jan-22 13:36 090 5 gusting 6 3.9
2020-Jan-22 13:26 045 5 gusting 6 3.3
2020-Jan-22 13:16 045 2 gusting 6 3.3
2020-Jan-22 13:06 045 3 gusting 6 3.3
2020-Jan-22 12:56 045 4 gusting 6 3.3
2020-Jan-22 12:46 045 3 gusting 6 2.8
2020-Jan-22 12:35 045 3 gusting 5 2.8
2020-Jan-22 12:25 045 2 gusting 4 2.8
2020-Jan-22 12:15 045 1 gusting 6 2.8
2020-Jan-22 12:05 090 4 gusting 6 2.8
2020-Jan-22 11:55 045 3 gusting 5 2.2
2020-Jan-22 11:45 045 1 gusting 4 2.2
2020-Jan-22 11:35 045 3 gusting 4 2.2
2020-Jan-22 11:25 045 1 gusting 4 2.2
2020-Jan-22 11:15 045 4 gusting 5 2.2
2020-Jan-22 11:05 045 1 gusting 3 1.7
2020-Jan-22 10:55 045 1 gusting 3 2.2
2020-Jan-22 10:45 045 1 gusting 2 2.2
2020-Jan-22 10:35 045 0 gusting 1 2.2
2020-Jan-22 10:25 045 2.8
2020-Jan-22 10:15 045 0 gusting 2 3.3
2020-Jan-22 10:05 090 1 gusting 4 3.9
2020-Jan-22 09:55 045 2 gusting 3 3.9
2020-Jan-22 09:45 090 3 gusting 3 4.4
2020-Jan-22 09:35 090 1 gusting 5 4.4
2020-Jan-22 09:25 090 3 gusting 6 4.4
2020-Jan-22 09:15 135 3 gusting 6 4.4
2020-Jan-22 09:05 090 6 gusting 9 4.4